[[{"header":{"parameterUnit":"m.s-1","parameterCategory":1,"la1":30.2991,"la2":30.254,"lo1":-89.0895,"lo2":-89.0444,"dy":0.0017,"dx":0.0017,"nx":28,"ny":28,"refTime":"2024-08-31T21:00:00:Z","depth":0,"parameterNumber":2,"parameterNumberName":"U-component_of_WINDS"},"data":[0,0,0,0,0,0,0,0,0,0,0,0,0,0,0,0,0,0,0,0,0,0,0,0,0,0,0,0,0,0,0,0,0,0,0,0,0,0,0,0,0,0,0,0,0,0,0,0,0,0,0,0,0,0,0,0,0,0,-3.7397,-3.7396,0,-3.729,-3.7289,-3.7288,-3.7144,-3.7142,-3.7139,-3.7137,-3.703,-3.7029,-3.7029,0,0,0,0,0,0,0,0,0,0,0,0,0,-3.7476,-3.7476,-3.7397,-3.7395,-3.7394,-3.7291,-3.7289,-3.7288,-3.7145,-3.7142,-3.7139,-3.7136,-3.703,-3.7029,-3.7029,0,0,0,0,0,0,0,0,0,0,0,0,0,-3.7413,-3.7475,-3.7397,-3.731,-3.7301,-3.7291,-3.7289,-3.7287,-3.7145,-3.7142,-3.7138,-3.7135,-3.703,-3.7029,-3.7028,-3.7095,0,0,-3.7026,-3.7025,0,0,0,0,0,0,0,0,-3.7417,-3.741,-3.7324,-3.7316,-3.7306,-3.7227,-3.7278,-3.7223,-3.7146,-3.7205,-3.7137,-3.7133,-3.7098,-3.7092,-3.708,-3.709,-3.7085,-3.7026,-3.7025,-3.7025,-3.7024,0,0,0,0,0,0,0,-3.7422,-3.7414,-3.7355,-3.7323,-3.7312,-3.7277,-3.7264,-3.7267,-3.7173,-3.7199,-3.7189,-3.7178,-3.7093,-3.7081,-3.7076,-3.7084,-3.7026,-3.7025,-3.7024,-3.7024,-3.714,-3.7143,0,0,0,0,0,0,-3.7439,-3.7419,-3.7358,-3.7351,-3.7354,-3.7278,-3.7264,-3.7256,-3.7173,-3.7156,-3.7181,-3.7172,-3.7084,-3.7077,-3.7072,-3.7141,-3.7025,-3.7024,-3.7023,-3.7136,-3.7141,-3.7145,0,0,0,0,0,0,-3.7441,-3.7435,-3.7362,-3.7382,-3.737,-3.7281,-3.7273,-3.7256,-3.7244,-3.7159,-3.7142,-3.7186,-3.7081,-3.7073,-3.7089,-3.7135,-3.7023,-3.7022,-3.7132,-3.7138,-3.7143,-3.7282,0,0,0,0,0,0,-3.7444,-3.7436,-3.7461,-3.7384,-3.737,-3.7382,-3.7276,-3.7256,-3.7242,-3.7229,-3.7159,-3.7144,-3.7078,-3.7092,-3.7088,-3.7132,-3.7022,-3.7127,-3.7134,-3.7141,-3.7273,-3.7292,-3.7308,0,0,0,0,0,-3.7447,-3.7505,-3.7463,-3.7456,-3.7398,-3.7385,-3.7377,-3.7299,-3.7247,-3.727,-3.7215,-3.7146,-3.7132,-3.7094,-3.709,-3.7134,-3.7124,-3.7132,-3.714,-3.7265,-3.7288,-3.7307,0,0,0,0,0,0,-3.759,-3.7493,-3.7445,-3.748,-3.7442,-3.7361,-3.7388,-3.7326,-3.7302,-3.7291,-3.7196,-3.7182,-3.7209,-3.7173,-3.7134,-3.7192,-3.7117,-3.7125,-3.7214,-3.7235,-3.7252,-3.7259,-3.7021,0,0,0,0,0,-3.7626,-3.7623,-3.7539,-3.7578,-3.7561,-3.7478,-3.747,-3.7413,-3.737,-3.7353,-3.7299,-3.726,-3.7246,-3.7239,-3.7222,-3.7268,-3.7249,-3.7296,-3.7314,-3.7328,-3.7335,-3.7354,-3.7373,-3.7171,-3.7171,-3.7171,0,0,-3.7699,-3.7646,-3.765,-3.7605,-3.7569,-3.7567,-3.7465,-3.7469,-3.7466,-3.7353,-3.7364,-3.7324,-3.7274,-3.7305,-3.7316,-3.7276,-3.7387,-3.7339,-3.7351,-3.735,-3.7364,-3.7383,-3.74,-3.7177,-3.7176,-3.7175,0,0,-3.7831,-3.7792,-3.7818,-3.7784,-3.773,-3.7674,-3.7681,-3.7609,-3.7578,-3.7587,-3.7502,-3.7498,-3.7477,-3.7444,-3.7424,-3.7544,-3.7478,-3.7542,-3.7631,-3.765,-3.7666,-3.768,-3.7719,-3.7735,-3.7549,-3.755,-3.755,0,-3.7929,-3.7923,-3.784,-3.7848,-3.783,-3.7727,-3.7752,-3.7723,-3.7667,-3.7657,-3.7614,-3.7583,-3.7543,-3.7562,-3.7591,-3.7581,-3.7583,-3.7547,-3.7671,-3.7683,-3.7695,-3.7731,-3.7747,-3.7557,-3.7556,-3.7556,-3.7555,0,-3.8045,-3.8042,-3.807,-3.8017,-3.8002,-3.802,-3.7938,-3.7934,-3.7879,-3.7828,-3.7838,-3.7786,-3.7755,-3.7756,-3.7704,-3.7769,-3.7745,-3.7688,-3.761,-3.7723,-3.7755,-3.7769,-3.7568,-3.7566,-3.7563,-3.7561,0,0,-3.8262,-3.8162,-3.8174,-3.8147,-3.808,-3.8076,-3.8089,-3.8058,-3.8054,-3.802,-3.8026,-3.801,-3.7956,-3.7934,-3.7877,-3.7894,-3.7988,-3.7834,-3.7831,-3.7862,-3.8053,-3.8094,-3.8112,-3.7946,-3.7948,-3.795,-3.8056,0,-3.8378,-3.8392,-3.8318,-3.8351,-3.8346,-3.8249,-3.8259,-3.8219,-3.8172,-3.8161,-3.811,-3.8099,-3.803,-3.8015,-3.8029,-3.7974,-3.8025,-3.7966,-3.7948,-3.7949,-3.796,-3.8129,-3.8173,-3.8275,-3.8068,-3.8071,-3.8072,0,-3.8516,-3.8487,-3.852,-3.8449,-3.8444,-3.8455,-3.8419,-3.8411,-3.8363,-3.8327,-3.8303,-3.8236,-3.8242,-3.8171,-3.8177,-3.8138,-3.8127,-3.8099,-3.8101,-3.8094,-3.8015,-3.8123,-3.8306,-3.832,-3.8092,-3.809,-3.8089,0,-3.8666,-3.8636,-3.8651,-3.8632,-3.8551,-3.856,-3.8527,-3.8476,-3.8461,-3.8431,-3.842,-3.8392,-3.8376,-3.8355,-3.8282,-3.8237,-3.8295,-3.8218,-3.8264,-3.8266,-3.8278,-3.8278,-3.8459,-3.8278,-3.8277,-3.8277,-3.8277,0,-3.8802,-3.8825,-3.8717,-3.8726,-3.8748,-3.8663,-3.8688,-3.8645,-3.86,-3.8598,-3.8514,-3.8514,-3.842,-3.8409,-3.8353,-3.8365,-3.8359,-3.8329,-3.8313,-3.8335,-3.8338,-3.8323,-3.8313,-3.8281,-3.828,-3.8279,-3.8279,0,-3.8973,-3.8902,-3.8911,-3.8833,-3.8814,-3.8834,-3.8767,-3.8772,-3.872,-3.8719,-3.8714,-3.8633,-3.8616,-3.8542,-3.8508,-3.847,-3.8499,-3.847,-3.8515,-3.8504,-3.8552,-3.8548,-3.8728,-3.8745,-3.8557,-3.8559,-3.8561,0,-3.9062,-3.9077,-3.9001,-3.8994,-3.8964,-3.8954,-3.8938,-3.8855,-3.8842,-3.8789,-3.8799,-3.8776,-3.8752,-3.8729,-3.8667,-3.864,-3.8607,-3.8672,-3.8603,-3.8623,-3.8604,-3.8603,-3.8602,-3.8686,-3.8689,-3.8691,-3.8693,0,-3.9227,-3.9191,-3.9172,-3.9141,-3.9124,-3.9096,-3.9062,-3.9061,-3.8968,-3.8958,-3.894,-3.8921,-3.8886,-3.8862,-3.8825,-3.879,-3.8725,-3.8716,-3.8724,-3.8744,-3.8768,-3.8752,-3.8552,-3.8711,-3.8709,-3.8708,-3.8707,-3.8706,-3.9357,-3.9365,-3.9312,-3.9293,-3.9259,-3.923,-3.9229,-3.9177,-3.916,-3.9124,-3.9077,-3.9064,-3.9014,-3.8957,-3.8927,-3.8915,-3.8879,-3.8892,-3.8895,-3.8898,-3.8908,-3.8773,-3.8908,-3.8908,-3.8907,-3.8907,-3.8906,0,-3.9515,-3.9476,-3.946,-3.9414,-3.94,-3.9341,-3.9301,-3.9292,-3.9281,-3.924,-3.9218,-3.9196,-3.9173,-3.9109,-3.9079,-3.9081,-3.9051,-3.9076,-3.9073,-3.9066,-3.8944,-3.8937,-3.9101,-3.9101,-3.9101,-3.9101,-3.9101,-3.9101,-3.9595,-3.9604,-3.9562,-3.9553,-3.9514,-3.95,-3.9482,-3.9453,-3.942,-3.9399,-3.9379,-3.9337,-3.9287,-3.9252,-3.9228,-3.9209,-3.9201,-3.9235,-3.9207,-3.9093,-3.9075,-3.9057,-3.905,-3.9235,-3.9235,-3.9329,-3.933,-3.9331]},{"header":{"parameterUnit":"m.s-1","parameterCategory":1,"la1":30.2991,"la2":30.254,"lo1":-89.0895,"lo2":-89.0444,"dy":0.0017,"dx":0.0017,"nx":28,"ny":28,"refTime":"2024-08-31T21:00:00:Z","depth":0,"parameterNumber":3,"parameterNumberName":"V-component_of_WINDS"},"data":[0,0,0,0,0,0,0,0,0,0,0,0,0,0,0,0,0,0,0,0,0,0,0,0,0,0,0,0,0,0,0,0,0,0,0,0,0,0,0,0,0,0,0,0,0,0,0,0,0,0,0,0,0,0,0,0,0,0,1.5222,1.5222,0,1.5267,1.5268,1.5268,1.5248,1.5247,1.5246,1.5245,1.5287,1.5289,1.5291,0,0,0,0,0,0,0,0,0,0,0,0,0,1.5113,1.5115,1.5222,1.5222,1.5223,1.5267,1.5268,1.5268,1.5248,1.5247,1.5245,1.5244,1.5286,1.5289,1.5291,0,0,0,0,0,0,0,0,0,0,0,0,0,1.5159,1.5116,1.5221,1.5218,1.5218,1.5267,1.5268,1.5268,1.5248,1.5247,1.5245,1.5243,1.5285,1.5289,1.5292,1.5345,0,0,1.5302,1.5303,0,0,0,0,0,0,0,0,1.5157,1.5163,1.5218,1.5218,1.5219,1.525,1.5245,1.5294,1.5249,1.5237,1.5245,1.5243,1.5276,1.528,1.5292,1.5347,1.5349,1.5302,1.5304,1.5305,1.5306,0,0,0,0,0,0,0,1.5154,1.5161,1.5239,1.5219,1.5219,1.5213,1.5218,1.5254,1.5265,1.5238,1.5236,1.5242,1.5276,1.5289,1.5293,1.535,1.5302,1.5305,1.5307,1.5308,1.5451,1.5453,0,0,0,0,0,0,1.5151,1.5159,1.5238,1.5241,1.5183,1.5216,1.5222,1.5242,1.5265,1.5267,1.5244,1.5241,1.5284,1.5289,1.5294,1.5358,1.5305,1.5308,1.531,1.5449,1.5451,1.5453,0,0,0,0,0,0,1.5149,1.5158,1.5236,1.52,1.5209,1.522,1.5243,1.5243,1.5257,1.5269,1.527,1.5255,1.5283,1.529,1.5333,1.5359,1.531,1.5313,1.5447,1.545,1.5452,1.5486,0,0,0,0,0,0,1.5146,1.5158,1.5179,1.52,1.5211,1.5276,1.5244,1.5246,1.5263,1.526,1.528,1.5282,1.5282,1.5328,1.5336,1.5363,1.5315,1.5445,1.5448,1.5451,1.5483,1.549,1.5496,0,0,0,0,0,1.5142,1.5186,1.518,1.519,1.5238,1.5277,1.5283,1.5283,1.5265,1.5286,1.5294,1.5281,1.5355,1.5333,1.5342,1.537,1.5443,1.5447,1.5451,1.548,1.5489,1.5496,0,0,0,0,0,0,1.5166,1.5189,1.5182,1.5235,1.5254,1.5274,1.53,1.5292,1.5317,1.5313,1.5311,1.5315,1.536,1.5369,1.5344,1.5422,1.5396,1.5402,1.5415,1.5423,1.543,1.5426,1.5318,0,0,0,0,0,1.5177,1.5209,1.5226,1.527,1.5281,1.5289,1.5306,1.5305,1.5324,1.5332,1.5343,1.5361,1.5388,1.5406,1.5432,1.5484,1.5488,1.5508,1.5514,1.552,1.5525,1.5553,1.5562,1.5467,1.5467,1.5467,0,0,1.5201,1.5217,1.5237,1.5276,1.5291,1.5322,1.5296,1.533,1.5352,1.5336,1.5379,1.5387,1.5408,1.5456,1.5477,1.5464,1.5552,1.5525,1.5529,1.5531,1.5558,1.5567,1.5575,1.547,1.5469,1.5469,0,0,1.526,1.5276,1.5315,1.5331,1.5354,1.536,1.5369,1.539,1.5395,1.5438,1.5427,1.5453,1.55,1.5515,1.5529,1.5594,1.5583,1.5602,1.5636,1.5664,1.5671,1.5678,1.57,1.5709,1.5608,1.5608,1.5608,0,1.5286,1.5334,1.5335,1.5371,1.5388,1.5376,1.5415,1.543,1.546,1.5471,1.5457,1.5516,1.5529,1.558,1.5596,1.5608,1.5618,1.56,1.567,1.5677,1.5683,1.5705,1.5713,1.561,1.561,1.5609,1.5609,0,1.5365,1.5398,1.5426,1.5458,1.5478,1.5514,1.552,1.554,1.5537,1.5544,1.5587,1.5602,1.5631,1.5643,1.5639,1.5693,1.5685,1.567,1.5644,1.5694,1.5714,1.5723,1.5613,1.5612,1.5611,1.5611,0,0,1.5439,1.5472,1.5482,1.5496,1.5522,1.5547,1.5583,1.5612,1.5629,1.565,1.568,1.572,1.5707,1.5723,1.5721,1.5745,1.5796,1.5728,1.5728,1.5739,1.5856,1.5866,1.5876,1.5789,1.5791,1.5792,1.5854,0,1.55,1.5565,1.5567,1.5625,1.5656,1.5646,1.5677,1.5695,1.5702,1.5728,1.5734,1.5763,1.5744,1.5753,1.5777,1.5785,1.5819,1.578,1.5815,1.5816,1.581,1.5887,1.5898,1.5956,1.5862,1.5863,1.5864,0,1.558,1.5605,1.5667,1.5689,1.5702,1.573,1.5757,1.5782,1.5802,1.5805,1.5824,1.5818,1.5854,1.5827,1.5875,1.5848,1.5863,1.5869,1.5871,1.5874,1.5843,1.5891,1.5974,1.5983,1.5877,1.5876,1.5875,0,1.5628,1.5677,1.5721,1.5733,1.576,1.578,1.5791,1.581,1.5828,1.5851,1.5862,1.5889,1.5903,1.5923,1.5925,1.5905,1.5973,1.5946,1.5976,1.5976,1.5991,1.599,1.6077,1.6001,1.6,1.6,1.6,0,1.5695,1.5733,1.5743,1.577,1.5812,1.5814,1.5855,1.5865,1.5882,1.5909,1.5901,1.5927,1.5928,1.5954,1.5955,1.5995,1.6001,1.6004,1.6004,1.6005,1.6004,1.6013,1.6009,1.6003,1.6002,1.6002,1.6001,0,1.5756,1.5764,1.5811,1.5832,1.5839,1.5869,1.5886,1.5911,1.5918,1.5953,1.5961,1.597,1.6,1.6004,1.6039,1.604,1.6087,1.6083,1.6081,1.608,1.611,1.6107,1.6206,1.6218,1.6134,1.6135,1.6136,0,1.5798,1.5828,1.5853,1.5872,1.5885,1.5915,1.5933,1.5936,1.5955,1.5981,1.6002,1.6032,1.6056,1.6104,1.6113,1.614,1.6136,1.6168,1.6139,1.6139,1.6136,1.6134,1.6136,1.6174,1.6175,1.6175,1.6176,0,1.5873,1.5876,1.5903,1.5933,1.5956,1.5978,1.6,1.6015,1.602,1.6042,1.6074,1.6092,1.6129,1.6158,1.6184,1.6194,1.6186,1.6185,1.6193,1.6194,1.6192,1.6193,1.6096,1.6183,1.6182,1.6182,1.6181,1.6181,1.5925,1.5951,1.5973,1.6004,1.6021,1.6042,1.6066,1.6076,1.6103,1.6134,1.6134,1.6168,1.6187,1.6222,1.6234,1.626,1.6249,1.6261,1.6264,1.6267,1.627,1.6188,1.6264,1.6264,1.6264,1.6264,1.6264,0,1.5999,1.6013,1.6042,1.6073,1.6097,1.6089,1.6113,1.6133,1.6164,1.6183,1.6207,1.6243,1.6272,1.6283,1.6311,1.6329,1.6326,1.6337,1.6335,1.6337,1.6278,1.6268,1.6339,1.6339,1.6339,1.6339,1.6339,1.6339,1.604,1.6084,1.6089,1.614,1.6153,1.6189,1.6203,1.6221,1.6236,1.6277,1.6302,1.631,1.6326,1.6354,1.6379,1.6382,1.6392,1.6404,1.6405,1.6349,1.6342,1.6334,1.6325,1.6406,1.6407,1.6462,1.6463,1.6463]}]]